"startDT [UTC]","vpos","CH4 [ppm]","stdev(CH4) [ppm]","CO2 [ppm]","stdev(CO2) [ppm]","H2O [ppm]","stdev(H2O)","p_LGR [torr]","T_LGR [C]","mt1_LGR [us]","mt2_LGR [us]","T_ECpre [C]","T_EC1 [C]","T_EC2 [C]","p_inlet [hPa]","p_in [hPa]","p_out [hPa]","T_inlet [C]","RH_inlet [%]","dwpt_inlet [C]","T_vent [C]","RH_vent [%]","dwpt_vent [C]","flow_vent [l min-1]","flow_inlet [l min-1]","dwpt_sample [C]","T_room [C]"
2012-02-28 00:00:00,0.0,1.9176,0.0009,403.94,0.32,-1.0,0.0,138.21,24.62,24.58,36.23,0.04,-272.73,-272.73,-45,549,-934,17.6,0.6,-43.4,18.0,0.7,-42.4,5.73,2.46,-37.8,24.0
2012-02-28 00:01:00,0.0,1.9175,0.0008,403.73,0.57,-1.0,0.0,138.21,24.61,24.57,36.22,0.04,-272.73,-272.72,-45,549,-933,17.6,0.7,-43.3,18.0,0.7,-42.4,5.73,2.48,-37.7,24.0
2012-02-28 00:02:00,0.0,1.9169,0.0010,403.23,0.28,-1.0,0.0,138.21,24.61,24.58,36.23,0.04,-272.73,-272.73,-45,549,-933,17.6,0.7,-43.0,18.0,0.7,-42.1,5.73,2.41,-37.7,24.0
2012-02-28 00:03:00,0.0,1.9164,0.0010,402.92,0.27,-1.0,0.0,138.21,24.61,24.58,36.23,0.04,-272.73,-272.73,-45,549,-934,17.6,0.7,-43.0,18.0,0.7,-42.0,5.73,2.41,-37.8,24.0
2012-02-28 00:04:00,0.0,1.9165,0.0011,403.30,0.26,-1.0,0.0,138.21,24.61,24.58,36.22,0.04,-272.73,-272.73,-45,549,-933,17.6,0.7,-43.0,18.0,0.7,-42.1,5.73,2.48,-37.8,24.0
2012-02-28 00:05:00,0.0,1.9167,0.0008,402.92,0.46,-1.0,0.0,138.21,24.61,24.57,36.23,0.04,-272.73,-272.73,-45,549,-933,17.6,0.7,-42.9,18.0,0.7,-42.1,5.73,2.47,-37.8,23.9
2012-02-28 00:06:00,0.0,1.9174,0.0009,402.59,0.29,-1.0,0.0,138.21,24.61,24.57,36.23,0.04,-272.73,-272.73,-45,549,-934,17.6,0.7,-42.9,18.0,0.7,-42.0,5.73,2.40,-37.8,23.9
2012-02-28 00:07:00,0.0,1.9174,0.0007,402.52,0.28,-1.0,0.0,138.21,24.61,24.57,36.23,0.04,-272.73,-272.73,-45,549,-933,17.6,0.7,-43.0,18.0,0.7,-42.1,5.73,2.41,-37.8,24.0
2012-02-28 00:08:00,0.0,1.9180,0.0010,402.86,0.34,-1.0,0.0,138.21,24.61,24.57,36.22,0.04,-272.73,-272.73,-45,549,-933,17.6,0.7,-43.0,18.0,0.7,-42.0,5.73,2.48,-37.8,24.0
2012-02-28 00:09:00,0.0,1.9179,0.0010,403.65,0.26,-1.0,0.0,138.21,24.61,24.58,36.22,0.04,-272.73,-272.73,-45,549,-933,17.6,0.7,-43.0,18.0,0.7,-42.0,5.73,2.47,-37.8,24.0
2012-02-28 00:10:00,0.0,1.9184,0.0008,404.05,0.30,-1.0,0.0,138.21,24.61,24.57,36.22,0.04,-272.73,-272.73,-45,549,-933,17.6,0.6,-43.3,18.0,0.7,-42.4,5.73,2.40,-37.8,24.0
2012-02-28 00:11:00,0.0,1.9174,0.0008,403.24,0.48,-1.0,0.0,138.21,24.61,24.58,36.22,0.04,-272.73,-272.73,-45,549,-933,17.6,0.7,-43.3,18.0,0.7,-42.4,5.73,2.42,-37.7,24.0
2012-02-28 00:12:00,0.0,1.9167,0.0009,402.70,0.25,-1.0,0.0,138.21,24.61,24.58,36.22,0.04,-272.73,-272.73,-45,549,-933,17.6,0.6,-43.4,18.0,0.7,-42.4,5.73,2.48,-37.7,24.0
2012-02-28 00:13:00,0.0,1.9167,0.0008,402.70,0.30,-1.0,0.0,138.21,24.60,24.58,36.22,0.04,-272.73,-272.73,-45,549,-933,17.6,0.6,-43.3,18.0,0.7,-42.4,5.73,2.47,-37.7,24.0
2012-02-28 00:14:00,0.0,1.9169,0.0008,402.84,0.30,-1.0,0.0,138.21,24.60,24.58,36.22,0.04,-272.72,-272.73,-45,549,-933,17.6,0.6,-43.4,18.0,0.7,-42.4,5.73,2.39,-37.7,24.0
2012-02-28 00:15:00,0.0,1.9171,0.0009,403.05,0.28,-1.0,0.0,138.21,24.60,24.58,36.22,0.04,-272.73,-272.73,-45,549,-934,17.6,0.6,-43.4,18.0,0.7,-42.4,5.73,2.42,-37.8,24.0
2012-02-28 00:16:00,0.0,1.9169,0.0010,402.70,0.28,-1.0,0.0,138.21,24.60,24.57,36.23,0.04,-272.73,-272.73,-45,549,-933,17.6,0.6,-43.3,18.0,0.7,-42.4,5.73,2.49,-37.8,24.0
2012-02-28 00:17:00,0.0,1.9164,0.0010,402.60,0.21,-1.0,0.0,138.21,24.59,24.57,36.22,0.04,-272.73,-272.73,-45,549,-933,17.6,0.6,-43.4,18.0,0.7,-42.4,5.73,2.47,-37.8,24.0
2012-02-28 00:18:00,0.0,1.9165,0.0009,402.71,0.30,-1.0,0.0,138.21,24.59,24.57,36.22,0.04,-272.73,-272.73,-45,549,-933,17.6,0.6,-43.4,18.0,0.7,-42.4,5.73,2.39,-37.8,24.0
2012-02-28 00:19:00,0.0,1.9172,0.0013,402.94,0.33,-1.0,0.0,138.21,24.59,24.58,36.23,0.04,-272.73,-272.73,-45,549,-933,17.6,0.7,-43.3,18.0,0.7,-42.4,5.73,2.42,-37.7,24.0
2012-02-28 00:20:00,0.0,1.9191,0.0013,403.16,0.30,-1.0,0.0,138.21,24.59,24.58,36.23,0.04,-272.73,-272.73,-45,549,-933,17.6,0.6,-43.3,18.0,0.7,-42.4,5.73,2.49,-37.8,24.0
2012-02-28 00:21:00,0.0,1.9198,0.0010,403.26,0.26,-1.0,0.0,138.21,24.60,24.57,36.23,0.04,-272.73,-272.73,-45,549,-933,17.6,0.6,-43.3,18.0,0.7,-42.1,5.73,2.45,-37.7,24.0
2012-02-28 00:22:00,0.0,1.9196,0.0009,403.15,0.30,-1.0,0.0,138.21,24.60,24.57,36.22,0.04,-272.73,-272.73,-45,549,-933,17.6,0.7,-43.0,18.0,0.7,-42.0,5.73,2.39,-37.7,24.0
2012-02-28 00:23:00,0.0,1.9180,0.0009,402.91,0.26,-1.0,0.0,138.21,24.60,24.57,36.23,0.04,-272.73,-272.73,-45,549,-933,17.6,0.7,-42.9,18.0,0.7,-42.0,5.73,2.44,-37.7,24.0
2012-02-28 00:24:00,0.0,1.9176,0.0009,402.67,0.29,-1.0,0.0,138.21,24.60,24.57,36.23,0.04,-272.73,-272.73,-45,549,-933,17.6,0.7,-43.0,18.0,0.7,-42.0,5.73,2.49,-37.7,24.0
2012-02-28 00:25:00,0.0,1.9178,0.0010,402.69,0.29,-1.0,0.0,138.21,24.60,24.57,36.22,0.04,-272.73,-272.73,-45,549,-934,17.6,0.7,-43.0,18.0,0.7,-42.0,5.73,2.42,-37.7,24.0
2012-02-28 00:26:00,0.0,1.9176,0.0009,402.66,0.30,-1.0,0.0,138.21,24.60,24.57,36.23,0.04,-272.73,-272.73,-45,549,-933,17.6,0.7,-43.0,18.0,0.7,-42.0,5.73,2.39,-37.7,24.0
2012-02-28 00:27:00,0.0,1.9180,0.0009,402.89,0.29,-1.0,0.0,138.21,24.61,24.57,36.22,0.04,-272.73,-272.73,-45,549,-933,17.6,0.7,-43.0,18.0,0.7,-42.0,5.73,2.45,-37.7,24.0
2012-02-28 00:28:00,0.0,1.9179,0.0008,403.06,0.30,-1.0,0.0,138.21,24.61,24.57,36.22,0.04,-272.73,-272.73,-45,549,-933,17.6,0.7,-43.0,18.0,0.7,-42.1,5.73,2.49,-37.7,24.0
2012-02-28 00:29:00,0.0,1.9175,0.0010,402.79,0.24,-1.0,0.0,138.21,24.61,24.57,36.22,0.04,-272.73,-272.73,-45,549,-934,17.6,0.7,-42.9,18.0,0.7,-42.0,5.73,2.43,-37.7,24.0
2012-02-28 00:30:00,0.0,1.9175,0.0009,402.69,0.31,-1.0,0.0,138.21,24.61,24.57,36.23,0.04,-272.73,-272.73,-45,549,-933,17.6,0.7,-42.9,18.0,0.7,-42.1,5.73,2.39,-37.7,24.0
2012-02-28 00:31:00,0.0,1.9175,0.0008,402.81,0.24,-1.0,0.0,138.21,24.61,24.58,36.22,0.04,-272.73,-272.73,-45,549,-933,17.6,0.7,-43.0,18.0,0.7,-42.0,5.73,2.46,-37.7,24.0
2012-02-28 00:32:00,0.0,1.9179,0.0010,402.90,0.33,-1.0,0.0,138.21,24.61,24.58,36.23,0.04,-272.73,-272.73,-45,549,-933,17.6,0.7,-43.0,18.0,0.7,-42.1,5.73,2.49,-37.7,24.0
2012-02-28 00:33:00,0.0,1.9189,0.0011,403.40,0.34,-1.0,0.0,138.21,24.61,24.57,36.23,0.04,-272.73,-272.73,-45,549,-933,17.6,0.7,-42.9,18.0,0.7,-42.0,5.73,2.42,-37.7,24.0
2012-02-28 00:34:00,0.0,1.9183,0.0008,403.50,0.36,-1.0,0.0,138.21,24.61,24.57,36.22,0.04,-272.73,-272.73,-45,549,-933,17.6,0.7,-43.0,18.0,0.7,-42.0,5.73,2.40,-37.7,24.0
2012-02-28 00:35:00,0.0,1.9181,0.0008,403.26,0.26,-1.0,0.0,138.21,24.61,24.58,36.23,0.04,-272.73,-272.73,-45,549,-933,17.6,0.7,-43.0,18.0,0.7,-42.1,5.73,2.46,-37.7,24.0
2012-02-28 00:36:00,0.0,1.9185,0.0010,403.34,0.28,-1.0,0.0,138.21,24.61,24.57,36.22,0.04,-272.73,-272.73,-45,549,-933,17.6,0.7,-42.9,18.0,0.7,-42.1,5.73,2.48,-37.7,24.0
2012-02-28 00:37:00,0.0,1.9185,0.0008,403.15,0.27,-1.0,0.0,138.21,24.61,24.57,36.23,0.04,-272.73,-272.73,-45,549,-933,17.6,0.7,-42.9,18.0,0.7,-42.1,5.73,2.42,-37.7,24.0
2012-02-28 00:38:00,0.0,1.9181,0.0009,403.18,0.23,-1.0,0.0,138.21,24.61,24.57,36.23,0.04,-272.72,-272.73,-45,549,-934,17.6,0.7,-42.9,18.0,0.7,-42.0,5.73,2.40,-37.8,24.0
2012-02-28 00:39:00,0.0,1.9181,0.0010,403.36,0.25,-1.0,0.0,138.21,24.60,24.57,36.22,0.04,-272.73,-272.73,-45,549,-933,17.6,0.7,-42.9,18.0,0.7,-42.0,5.73,2.48,-37.7,24.0
2012-02-28 00:40:00,0.0,1.9184,0.0010,403.32,0.30,-1.0,0.0,138.21,24.60,24.57,36.22,0.04,-272.73,-272.73,-45,549,-934,17.6,0.7,-43.0,18.0,0.7,-42.1,5.73,2.48,-37.7,24.0
2012-02-28 00:41:00,0.0,1.9179,0.0008,403.27,0.29,-1.0,0.0,138.21,24.60,24.57,36.23,0.04,-272.73,-272.72,-45,549,-933,17.6,0.7,-42.9,18.0,0.7,-42.1,5.73,2.40,-37.7,24.0
2012-02-28 00:42:00,0.0,1.9181,0.0010,403.52,0.26,-1.0,0.0,138.21,24.60,24.57,36.22,0.04,-272.73,-272.73,-45,549,-933,17.6,0.7,-43.0,18.0,0.7,-42.0,5.73,2.41,-37.7,24.0
2012-02-28 00:43:00,0.0,1.9184,0.0011,403.75,0.25,-1.0,0.0,138.21,24.59,24.57,36.23,0.04,-272.73,-272.73,-45,549,-933,17.6,0.7,-42.9,18.0,0.7,-42.0,5.73,2.48,-37.7,24.1
2012-02-28 00:44:00,0.0,1.9172,0.0008,403.47,0.30,-1.0,0.0,138.21,24.59,24.58,36.22,0.04,-272.73,-272.73,-45,549,-933,17.6,0.7,-42.9,18.0,0.7,-42.0,5.73,2.48,-37.7,24.1
2012-02-28 00:45:00,0.0,1.9179,0.0007,403.47,0.26,-1.0,0.0,138.21,24.59,24.58,36.23,0.04,-272.73,-272.73,-45,549,-933,17.6,0.7,-43.0,18.0,0.7,-42.1,5.73,2.40,-37.7,24.0
2012-02-28 00:46:00,0.0,1.9179,0.0009,403.41,0.28,-1.0,0.0,138.21,24.59,24.57,36.23,0.04,-272.73,-272.73,-45,549,-933,17.6,0.7,-42.9,18.0,0.7,-42.0,5.73,2.41,-37.7,24.1
2012-02-28 00:47:00,0.0,1.9181,0.0010,403.33,0.26,-1.0,0.0,138.21,24.59,24.57,36.23,0.04,-272.73,-272.73,-45,549,-933,17.6,0.7,-42.9,18.0,0.7,-42.0,5.73,2.48,-37.7,24.0
2012-02-28 00:48:00,0.0,1.9185,0.0010,403.34,0.27,-1.0,0.0,138.21,24.59,24.58,36.23,0.04,-272.73,-272.73,-45,549,-933,17.6,0.7,-43.0,18.0,0.7,-42.1,5.73,2.47,-37.7,24.0
2012-02-28 00:49:00,0.0,1.9183,0.0010,403.34,0.27,-1.0,0.0,138.21,24.59,24.58,36.23,0.04,-272.73,-272.73,-45,549,-933,17.6,0.7,-42.9,18.0,0.7,-42.1,5.73,2.39,-37.7,24.0
2012-02-28 00:50:00,0.0,1.9191,0.0009,403.60,0.28,-1.0,0.0,138.21,24.59,24.57,36.22,0.04,-272.73,-272.73,-45,549,-934,17.6,0.7,-43.0,18.0,0.7,-42.0,5.73,2.42,-37.7,23.9
2012-02-28 00:51:00,0.0,1.9199,0.0009,403.63,0.26,-1.0,0.0,138.21,24.59,24.57,36.22,0.04,-272.73,-272.73,-45,549,-933,17.6,0.7,-43.0,18.0,0.7,-42.1,5.73,2.49,-37.7,24.0
2012-02-28 00:52:00,0.0,1.9197,0.0009,403.44,0.29,-1.0,0.0,138.21,24.59,24.57,36.23,0.04,-272.73,-272.73,-45,549,-933,17.6,0.7,-43.0,18.0,0.7,-42.0,5.73,2.46,-37.7,23.9
2012-02-28 00:53:00,0.0,1.9193,0.0011,403.53,0.27,-1.0,0.0,138.21,24.59,24.57,36.22,0.04,-272.73,-272.73,-45,549,-934,17.6,0.7,-42.9,18.0,0.7,-42.1,5.73,2.39,-37.7,24.0
2012-02-28 00:54:00,0.0,1.9188,0.0009,403.37,0.30,-1.0,0.0,138.21,24.59,24.57,36.22,0.04,-272.73,-272.73,-45,549,-933,17.6,0.7,-42.9,18.0,0.7,-42.1,5.73,2.43,-37.7,23.9
2012-02-28 00:55:00,0.0,1.9183,0.0009,403.10,0.26,-1.0,0.0,138.21,24.59,24.58,36.22,0.04,-272.72,-272.73,-45,549,-933,17.6,0.7,-42.9,18.0,0.7,-42.1,5.73,2.50,-37.7,23.9
2012-02-28 00:56:00,0.0,1.9179,0.0010,402.89,0.29,-1.0,0.0,138.21,24.59,24.57,36.23,0.04,-272.73,-272.73,-45,549,-933,17.6,0.7,-42.9,18.0,0.7,-42.0,5.73,2.44,-37.7,23.9
2012-02-28 00:57:00,0.0,1.9183,0.0010,402.92,0.31,-1.0,0.0,138.21,24.59,24.58,36.23,0.04,-272.72,-272.73,-45,549,-934,17.7,0.7,-42.9,18.0,0.7,-42.0,5.73,2.39,-37.7,24.0
2012-02-28 00:58:00,0.0,1.9193,0.0012,403.05,0.30,-1.0,0.0,138.21,24.59,24.58,36.22,0.04,-272.73,-272.73,-45,550,-933,17.7,0.7,-42.9,18.1,0.7,-42.1,5.73,2.45,-37.7,24.0
2012-02-28 00:59:00,0.0,1.9195,0.0009,402.98,0.23,-1.0,0.0,138.21,24.59,24.58,36.23,0.04,-272.73,-272.73,-45,549,-934,17.7,0.7,-42.9,18.1,0.7,-42.0,5.73,2.49,-37.7,24.0
2012-02-28 01:00:00,0.0,1.9196,0.0007,403.03,0.31,-1.0,0.0,138.21,24.59,24.57,36.23,0.04,-272.73,-272.73,-45,549,-933,17.6,0.6,-43.3,18.1,0.7,-42.4,5.73,2.43,-37.6,24.0
2012-02-28 01:01:00,0.0,1.9192,0.0009,403.17,0.27,-1.0,0.0,138.21,24.59,24.57,36.23,0.04,-272.73,-272.73,-45,549,-933,17.7,0.6,-43.3,18.0,0.7,-42.4,5.73,2.39,-37.6,24.0
2012-02-28 01:02:00,0.0,1.9188,0.0009,403.12,0.29,-1.0,0.0,138.21,24.59,24.57,36.22,0.04,-272.72,-272.73,-45,549,-933,17.6,0.6,-43.3,18.0,0.7,-42.4,5.73,2.47,-37.6,24.0
2012-02-28 01:03:00,0.0,1.9188,0.0008,403.15,0.32,-1.0,0.0,138.21,24.59,24.57,36.22,0.04,-272.73,-272.73,-45,549,-933,17.6,0.7,-43.2,18.1,0.7,-42.1,5.73,2.48,-37.6,24.0
2012-02-28 01:04:00,0.0,1.9183,0.0009,403.16,0.31,-1.0,0.0,138.21,24.59,24.58,36.22,0.04,-272.73,-272.73,-45,549,-933,17.7,0.7,-42.9,18.0,0.7,-42.0,5.73,2.41,-37.6,24.0
2012-02-28 01:05:00,0.0,1.9195,0.0011,403.27,0.28,-1.0,0.0,138.21,24.59,24.57,36.22,0.04,-272.73,-272.73,-45,549,-933,17.6,0.7,-43.0,18.0,0.7,-42.0,5.73,2.41,-37.6,24.0
2012-02-28 01:06:00,0.0,1.9195,0.0010,403.11,0.32,-1.0,0.0,138.21,24.58,24.57,36.22,0.04,-272.73,-272.73,-45,549,-933,17.7,0.7,-42.9,18.0,0.7,-42.0,5.73,2.48,-37.6,24.0
2012-02-28 01:07:00,0.0,1.9196,0.0008,403.03,0.26,-1.0,0.0,138.21,24.58,24.57,36.23,0.04,-272.73,-272.73,-45,549,-933,17.7,0.7,-42.8,18.0,0.7,-42.1,5.73,2.46,-37.6,24.0
2012-02-28 01:08:00,0.0,1.9193,0.0010,403.04,0.26,-1.0,0.0,138.21,24.58,24.58,36.22,0.04,-272.73,-272.73,-45,549,-933,17.7,0.7,-42.6,18.1,0.7,-41.8,5.73,2.39,-37.6,23.9
2012-02-28 01:09:00,0.0,1.9191,0.0008,402.87,0.27,-1.0,0.0,138.21,24.58,24.58,36.23,0.04,-272.73,-272.73,-45,549,-933,17.7,0.7,-42.5,18.1,0.8,-41.7,5.73,2.42,-37.6,24.0
2012-02-28 01:10:00,0.0,1.9188,0.0009,402.63,0.26,-1.0,0.0,138.21,24.58,24.57,36.23,0.04,-272.73,-272.73,-45,549,-933,17.7,0.7,-42.3,18.0,0.8,-41.4,5.73,2.49,-37.6,24.0
2012-02-28 01:11:00,0.0,1.9187,0.0010,402.64,0.29,-1.0,0.0,138.21,24.58,24.57,36.23,0.04,-272.73,-272.73,-45,549,-933,17.7,0.7,-42.2,18.0,0.8,-41.4,5.73,2.45,-37.6,24.0
2012-02-28 01:12:00,0.0,1.9184,0.0008,402.63,0.29,-1.0,0.0,138.21,24.58,24.58,36.23,0.04,-272.72,-272.73,-45,549,-934,17.7,0.7,-42.2,18.1,0.8,-41.3,5.73,2.39,-37.6,24.0
2012-02-28 01:13:00,0.0,1.9184,0.0009,402.57,0.26,-1.0,0.0,138.21,24.58,24.58,36.23,0.04,-272.73,-272.73,-45,549,-933,17.7,0.8,-41.9,18.1,0.8,-41.0,5.73,2.44,-37.6,23.9
2012-02-28 01:14:00,0.0,1.9187,0.0012,402.62,0.26,-1.0,0.0,138.21,24.58,24.58,36.22,0.04,-272.73,-272.73,-45,550,-933,17.7,0.8,-41.8,18.1,0.8,-41.0,5.73,2.49,-37.6,24.0
2012-02-28 01:15:00,0.0,1.9190,0.0010,402.59,0.25,-1.0,0.0,138.21,24.58,24.58,36.22,0.04,-272.73,-272.73,-45,550,-934,17.7,0.8,-41.7,18.1,0.8,-40.9,5.73,2.44,-37.6,23.9
2012-02-28 01:16:00,0.0,1.9199,0.0010,402.57,0.29,-1.0,0.0,138.21,24.58,24.58,36.23,0.04,-272.73,-272.73,-45,549,-934,17.7,0.8,-41.5,18.1,0.8,-40.8,5.73,2.39,-37.4,23.9
2012-02-28 01:17:00,0.0,1.9206,0.0011,402.61,0.25,-1.0,0.0,138.21,24.58,24.57,36.22,0.04,-272.73,-272.73,-45,550,-933,17.6,0.8,-41.5,18.1,0.8,-40.7,5.73,2.45,-37.2,24.0
2012-02-28 01:18:00,0.0,1.9202,0.0010,402.61,0.23,-1.0,0.0,138.21,24.59,24.57,36.23,0.04,-272.73,-272.73,-45,550,-934,17.7,0.8,-41.5,18.1,0.8,-40.7,5.73,2.49,-37.2,24.0
2012-02-28 01:19:00,0.0,1.9208,0.0010,402.56,0.31,-1.0,0.0,138.21,24.59,24.57,36.23,0.04,-272.73,-272.73,-45,550,-933,17.7,0.8,-41.1,18.1,0.9,-40.3,5.73,2.43,-37.2,24.0
2012-02-28 01:20:00,0.0,1.9207,0.0011,402.67,0.27,-1.0,0.0,138.21,24.59,24.57,36.22,0.04,-272.73,-272.73,-45,550,-933,17.7,0.8,-41.2,18.1,0.9,-40.4,5.73,2.39,-37.2,24.1
2012-02-28 01:21:00,0.0,1.9200,0.0009,402.60,0.29,-1.0,0.0,138.21,24.59,24.57,36.23,0.04,-272.73,-272.73,-45,550,-933,17.7,0.8,-41.2,18.1,0.9,-40.3,5.73,2.45,-37.2,24.1
2012-02-28 01:22:00,0.0,1.9205,0.0010,402.68,0.33,-1.0,0.0,138.21,24.60,24.58,36.23,0.04,-272.72,-272.72,-45,550,-934,17.7,0.8,-41.2,18.1,0.9,-40.3,5.73,2.49,-37.2,24.1
2012-02-28 01:23:00,0.0,1.9202,0.0009,402.64,0.25,-1.0,0.0,138.21,24.60,24.57,36.23,0.04,-272.73,-272.73,-45,550,-933,17.7,0.8,-41.1,18.1,0.9,-40.3,5.73,2.43,-37.2,24.1
2012-02-28 01:24:00,0.0,1.9199,0.0009,402.63,0.30,-1.0,0.0,138.20,24.60,24.58,36.23,0.04,-272.73,-272.73,-46,549,-934,17.7,0.8,-40.8,18.1,0.9,-40.1,5.73,2.39,-37.2,24.1
2012-02-28 01:25:00,0.0,1.9201,0.0010,402.70,0.26,-1.0,0.0,138.21,24.60,24.57,36.23,0.04,-272.73,-272.73,-45,550,-933,17.7,0.8,-40.8,18.1,0.9,-40.1,5.73,2.45,-37.1,24.1
2012-02-28 01:26:00,0.0,1.9199,0.0009,402.67,0.26,-1.0,0.0,138.21,24.61,24.58,36.23,0.04,-272.73,-272.73,-45,550,-933,17.8,0.8,-40.8,18.1,0.9,-40.0,5.73,2.49,-37.1,24.1
2012-02-28 01:27:00,0.0,1.9203,0.0009,402.56,0.31,-1.0,0.0,138.21,24.60,24.57,36.23,0.04,-272.73,-272.73,-45,550,-933,17.8,0.8,-40.8,18.1,0.9,-40.0,5.73,2.43,-37.1,24.1
2012-02-28 01:28:00,0.0,1.9202,0.0009,402.67,0.26,-1.0,0.0,138.21,24.61,24.57,36.23,0.04,-272.73,-272.73,-45,550,-933,17.8,0.8,-40.8,18.1,0.9,-40.0,5.73,2.39,-37.1,24.0
2012-02-28 01:29:00,0.0,1.9201,0.0009,402.70,0.27,-1.0,0.0,138.21,24.61,24.57,36.23,0.04,-272.73,-272.73,-45,550,-934,17.8,0.8,-40.8,18.1,0.9,-40.0,5.73,2.45,-37.0,24.1
2012-02-28 01:30:00,0.0,1.9197,0.0009,402.68,0.27,-1.0,0.0,138.21,24.61,24.57,36.23,0.04,-272.73,-272.73,-45,550,-934,17.8,0.9,-40.6,18.2,0.9,-39.9,5.73,2.49,-37.0,24.1
2012-02-28 01:31:00,0.0,1.9194,0.0010,402.78,0.27,-1.0,0.0,138.21,24.61,24.58,36.23,0.04,-272.73,-272.73,-46,550,-933,17.8,0.9,-40.4,18.2,0.9,-39.7,5.73,2.43,-37.0,24.1
2012-02-28 01:32:00,0.0,1.9196,0.0010,402.84,0.25,-1.0,0.0,138.21,24.62,24.57,36.22,0.04,-272.73,-272.73,-45,550,-934,17.9,0.9,-40.5,18.2,0.9,-39.7,5.73,2.40,-37.0,24.1
2012-02-28 01:33:00,0.0,1.9195,0.0009,402.84,0.24,-1.0,0.0,138.21,24.62,24.57,36.22,0.04,-272.73,-272.73,-45,550,-933,17.9,0.9,-40.5,18.2,0.9,-39.7,5.73,2.44,-37.0,24.2
2012-02-28 01:34:00,0.0,1.9188,0.0010,402.75,0.27,-1.0,0.0,138.21,24.61,24.58,36.22,0.04,-272.73,-272.73,-46,550,-933,17.9,0.9,-40.5,18.2,0.9,-39.7,5.73,2.49,-37.0,24.2
2012-02-28 01:35:00,0.0,1.9189,0.0007,402.73,0.28,-1.0,0.0,138.21,24.61,24.57,36.23,0.04,-272.73,-272.73,-45,550,-934,17.9,0.9,-40.5,18.2,0.9,-39.7,5.73,2.45,-37.0,24.2
2012-02-28 01:36:00,0.0,1.9190,0.0007,402.78,0.24,-1.0,0.0,138.21,24.61,24.57,36.23,0.04,-272.73,-272.73,-45,550,-933,17.9,0.9,-40.4,18.3,0.9,-39.6,5.73,2.39,-37.0,24.2
2012-02-28 01:37:00,0.0,1.9195,0.0010,402.63,0.25,-1.0,0.0,138.21,24.61,24.57,36.24,0.04,-272.73,-272.73,-46,550,-933,17.9,0.8,-40.8,18.2,0.9,-39.9,5.73,2.42,-37.0,24.2
2012-02-28 01:38:00,0.0,1.9197,0.0010,402.76,0.28,-1.0,0.0,138.21,24.61,24.57,36.23,0.04,-272.73,-272.73,-45,550,-934,17.9,0.8,-41.1,18.3,0.9,-40.2,5.73,2.48,-37.0,24.2
2012-02-28 01:39:00,0.0,1.9199,0.0009,403.31,0.28,-1.0,0.0,138.21,24.61,24.57,36.23,0.04,-272.73,-272.73,-45,550,-933,17.9,0.8,-41.3,18.3,0.8,-40.5,5.73,2.47,-37.0,24.2
2012-02-28 01:40:00,0.0,1.9198,0.0008,403.39,0.28,-1.0,0.0,138.21,24.62,24.58,36.23,0.04,-272.73,-272.73,-45,551,-934,17.9,0.8,-41.7,18.3,0.8,-40.9,5.73,2.40,-37.0,24.3
2012-02-28 01:41:00,0.0,1.9197,0.0012,403.05,0.28,-1.0,0.0,138.21,24.62,24.57,36.23,0.04,-272.73,-272.73,-46,551,-934,17.9,0.7,-42.0,18.2,0.8,-41.1,5.73,2.41,-37.0,24.3
2012-02-28 01:42:00,0.0,1.9193,0.0009,403.22,0.29,-1.0,0.0,138.20,24.62,24.57,36.23,0.04,-272.73,-272.73,-45,551,-934,17.9,0.7,-42.1,18.2,0.8,-41.2,5.73,2.47,-37.0,24.3
2012-02-28 01:43:00,0.0,1.9193,0.0009,403.33,0.26,-1.0,0.0,138.21,24.62,24.58,36.22,0.04,-272.73,-272.73,-45,551,-934,17.9,0.7,-42.0,18.2,0.8,-41.2,5.73,2.47,-36.9,24.3
2012-02-28 01:44:00,0.0,1.9195,0.0010,403.41,0.27,-1.0,0.0,138.21,24.62,24.57,36.23,0.04,-272.73,-272.73,-46,551,-933,17.9,0.7,-42.0,18.3,0.8,-41.2,5.73,2.40,-36.9,24.3
2012-02-28 01:45:00,0.0,1.9194,0.0009,403.36,0.25,-1.0,0.0,138.21,24.62,24.57,36.23,0.04,-272.72,-272.73,-45,551,-934,17.9,0.7,-42.1,18.3,0.8,-41.2,5.73,2.40,-36.9,24.3
2012-02-28 01:46:00,0.0,1.9196,0.0010,403.27,0.30,-1.0,0.0,138.21,24.62,24.57,36.23,0.04,-272.72,-272.73,-45,551,-934,17.9,0.7,-42.0,18.3,0.8,-41.2,5.73,2.47,-36.9,24.2
2012-02-28 01:47:00,0.0,1.9193,0.0009,403.27,0.28,-1.0,0.0,138.21,24.63,24.57,36.22,0.04,-272.73,-272.73,-46,551,-933,17.9,0.7,-42.0,18.3,0.8,-41.2,5.73,2.47,-36.9,24.2
2012-02-28 01:48:00,0.0,1.9191,0.0008,403.17,0.29,-1.0,0.0,138.21,24.63,24.57,36.23,0.04,-272.73,-272.73,-46,551,-934,17.9,0.7,-42.1,18.3,0.8,-41.2,5.73,2.41,-36.9,24.2
2012-02-28 01:49:00,0.0,1.9185,0.0009,403.12,0.29,-1.0,0.0,138.21,24.63,24.58,36.22,0.04,-272.73,-272.73,-45,550,-933,17.9,0.7,-42.1,18.3,0.8,-41.2,5.73,2.40,-36.9,24.2
2012-02-28 01:50:00,0.0,1.9184,0.0009,403.19,0.23,-1.0,0.0,138.21,24.63,24.58,36.23,0.04,-272.73,-272.73,-46,551,-933,17.9,0.7,-42.1,18.3,0.8,-41.2,5.73,2.46,-36.9,24.2
2012-02-28 01:51:00,0.0,1.9185,0.0008,403.10,0.25,-1.0,0.0,138.21,24.62,24.57,36.22,0.04,-272.73,-272.73,-46,551,-933,17.9,0.7,-42.0,18.3,0.8,-41.2,5.73,2.47,-36.9,24.2
2012-02-28 01:52:00,0.0,1.9185,0.0010,403.13,0.23,-1.0,0.0,138.21,24.62,24.57,36.23,0.04,-272.73,-272.73,-45,551,-934,17.9,0.7,-42.1,18.3,0.8,-41.2,5.73,2.42,-36.9,24.2
2012-02-28 01:53:00,0.0,1.9186,0.0010,403.16,0.26,-1.0,0.0,138.21,24.62,24.58,36.22,0.04,-272.73,-272.73,-45,551,-933,17.9,0.7,-42.1,18.3,0.8,-41.2,5.73,2.39,-36.9,24.2
2012-02-28 01:54:00,0.0,1.9191,0.0010,403.11,0.25,-1.0,0.0,138.21,24.62,24.57,36.23,0.04,-272.73,-272.73,-46,551,-934,17.9,0.7,-41.9,18.3,0.8,-41.0,5.73,2.47,-36.9,24.2
2012-02-28 01:55:00,0.0,1.9197,0.0009,403.31,0.26,-1.0,0.0,138.20,24.62,24.57,36.23,0.04,-272.73,-272.73,-45,550,-933,17.9,0.8,-41.7,18.3,0.8,-40.9,5.73,2.48,-36.9,24.2
2012-02-28 01:56:00,0.0,1.9195,0.0010,403.28,0.25,-1.0,0.0,138.21,24.62,24.57,36.23,0.04,-272.73,-272.73,-45,551,-934,17.9,0.8,-41.7,18.3,0.8,-40.9,5.73,2.41,-36.9,24.2
2012-02-28 01:57:00,0.0,1.9202,0.0008,403.36,0.25,-1.0,0.0,138.21,24.62,24.58,36.22,0.04,-272.73,-272.73,-46,551,-934,17.9,0.8,-41.5,18.3,0.8,-40.9,5.73,2.39,-36.9,24.2
2012-02-28 01:58:00,0.0,1.9211,0.0009,403.44,0.29,-1.0,0.0,138.21,24.63,24.57,36.23,0.04,-272.73,-272.73,-46,551,-934,17.9,0.8,-41.4,18.3,0.8,-40.6,5.73,2.45,-36.9,24.2
2012-02-28 01:59:00,0.0,1.9207,0.0010,403.13,0.40,-1.0,0.0,138.21,24.63,24.57,36.23,0.04,-272.73,-272.73,-45,551,-934,17.9,0.8,-41.4,18.3,0.8,-40.5,5.73,2.48,-36.9,24.2
2012-02-28 02:00:00,0.0,1.9197,0.0011,402.66,0.31,-1.0,0.0,138.20,24.64,24.58,36.23,0.04,-272.73,-272.73,-46,551,-933,17.9,0.8,-41.1,18.3,0.9,-40.4,5.73,2.41,-36.9,24.2
2012-02-28 02:01:00,0.0,1.9199,0.0009,402.62,0.25,-1.0,0.0,138.21,24.63,24.57,36.23,0.04,-272.73,-272.73,-46,551,-934,17.9,0.8,-41.1,18.3,0.9,-40.3,5.73,2.40,-36.9,24.3
2012-02-28 02:02:00,0.0,1.9196,0.0011,402.68,0.25,-1.0,0.0,138.20,24.64,24.58,36.23,0.04,-272.73,-272.73,-45,551,-933,17.9,0.8,-41.0,18.3,0.9,-40.2,5.73,2.46,-36.9,24.2
2012-02-28 02:03:00,0.0,1.9200,0.0011,402.61,0.30,-1.0,0.0,138.20,24.64,24.58,36.24,0.04,-272.73,-272.73,-46,551,-934,17.9,0.8,-41.0,18.3,0.9,-40.3,5.73,2.47,-36.9,24.2
2012-02-28 02:04:00,0.0,1.9202,0.0009,402.78,0.29,-1.0,0.0,138.21,24.64,24.58,36.23,0.04,-272.73,-272.73,-46,551,-933,17.9,0.8,-40.7,18.3,0.9,-40.0,5.73,2.42,-36.9,24.2
2012-02-28 02:05:00,0.0,1.9201,0.0011,402.78,0.31,-1.0,0.0,138.20,24.65,24.58,36.23,0.04,-272.73,-272.73,-46,551,-934,17.9,0.8,-40.8,18.3,0.9,-40.0,5.73,2.39,-36.9,24.2
2012-02-28 02:06:00,0.0,1.9206,0.0010,402.77,0.25,-1.0,0.0,138.20,24.65,24.57,36.23,0.04,-272.73,-272.73,-46,551,-934,17.9,0.8,-40.7,18.3,0.9,-39.9,5.73,2.46,-36.9,24.2
2012-02-28 02:07:00,0.0,1.9201,0.0008,402.75,0.27,-1.0,0.0,138.20,24.66,24.57,36.23,0.04,-272.73,-272.73,-46,551,-934,17.9,0.8,-40.7,18.3,0.9,-40.0,5.73,2.48,-36.9,24.2
2012-02-28 02:08:00,0.0,1.9203,0.0009,402.74,0.27,-1.0,0.0,138.20,24.66,24.57,36.23,0.04,-272.73,-272.73,-46,551,-933,17.9,0.9,-40.4,18.3,0.9,-39.7,5.73,2.40,-36.9,24.2
2012-02-28 02:09:00,0.0,1.9197,0.0009,402.69,0.30,-1.0,0.0,138.21,24.66,24.58,36.22,0.04,-272.73,-272.73,-46,551,-934,17.9,0.9,-40.4,18.3,0.9,-39.6,5.73,2.39,-36.9,24.2
2012-02-28 02:10:00,0.0,1.9202,0.0010,402.72,0.27,-1.0,0.0,138.20,24.66,24.57,36.23,0.04,-272.73,-272.73,-46,551,-933,17.9,0.9,-40.4,18.3,0.9,-39.6,5.73,2.47,-36.9,24.2
2012-02-28 02:11:00,0.0,1.9204,0.0011,402.73,0.30,-1.0,0.0,138.21,24.67,24.58,36.23,0.04,-272.73,-272.73,-46,551,-934,17.9,0.9,-40.2,18.3,0.9,-39.5,5.73,2.48,-36.9,24.3
2012-02-28 02:12:00,0.0,1.9206,0.0009,402.70,0.27,-1.0,0.0,138.20,24.67,24.58,36.23,0.04,-272.73,-272.73,-46,551,-934,17.9,0.9,-40.2,18.3,0.9,-39.4,5.73,2.41,-36.9,24.2
2012-02-28 02:13:00,0.0,1.9208,0.0012,402.76,0.27,-1.0,0.0,138.20,24.67,24.57,36.23,0.04,-272.73,-272.73,-46,551,-933,17.9,0.9,-40.1,18.3,0.9,-39.3,5.73,2.39,-36.9,24.2
2012-02-28 02:14:00,0.0,1.9207,0.0009,402.85,0.25,-1.0,0.0,138.20,24.67,24.58,36.23,0.04,-272.73,-272.73,-46,551,-933,18.0,0.9,-40.1,18.3,0.9,-39.3,5.73,2.46,-36.9,24.2
2012-02-28 02:15:00,0.0,1.9208,0.0010,402.79,0.24,-1.0,0.0,138.20,24.67,24.57,36.23,0.04,-272.73,-272.73,-46,551,-934,18.0,0.9,-40.0,18.3,0.9,-39.3,5.73,2.48,-36.9,24.2
2012-02-28 02:16:00,0.0,1.9210,0.0010,402.85,0.29,-1.0,0.0,138.20,24.68,24.57,36.23,0.04,-272.73,-272.73,-46,551,-933,18.0,0.9,-39.8,18.3,1.0,-39.1,5.73,2.41,-36.9,24.2
2012-02-28 02:17:00,0.0,1.9207,0.0010,402.89,0.27,-1.0,0.0,138.20,24.68,24.57,36.22,0.04,-272.73,-272.73,-46,551,-934,18.0,0.9,-39.8,18.3,1.0,-39.0,5.73,2.40,-36.9,24.2
2012-02-28 02:18:00,0.0,1.9203,0.0011,402.87,0.29,-1.0,0.0,138.21,24.68,24.58,36.23,0.04,-272.73,-272.73,-46,551,-934,18.0,0.9,-39.7,18.3,1.0,-39.1,5.73,2.47,-36.9,24.2